Bemidji, MN

2:35 PM CDT on March 29, 2017 (GMT -0500)
Bemidji-Beltrami County

Weather History for KBJI - February, 2014

Change the Weather History Date:

Wednesday, February 26, 2014

  Actual Average Record
Temperature  
Mean Temperature -5 °F -  
Max Temperature 7 °F 29 °F 56 °F (1958)
Min Temperature -18 °F 4 °F -31 °F (1950)
Degree Days  
Heating Degree Days 70    
Moisture  
Dew Point -13 °F    
Average Humidity 67    
Maximum Humidity 77    
Minimum Humidity 57    
Precipitation  
Precipitation 0.00 in - - ()
Sea Level Pressure  
Sea Level Pressure 29.77 in    
Wind  
Wind Speed 16 mph (West)    
Max Wind Speed 34 mph    
Max Gust Speed 50 mph    
Visibility 6 miles    
Events Snow    
Averages and records for this station are not official NWS values.
T = Trace of Precipitation, MM = Missing Value Source: NWS Daily Summary

Daily Weather History Graph

Daily Weather History Graph

Search for Another Location

Airport or City:

Trip Planner

Search our weather history database for the weather conditions in past years. The results will help you decide how hot, cold, wet, or windy it might be!

Date:

Astronomy

Feb. 26, 2014 Rise Set
Actual Time 7:05 AM CST 6:00 PM CST
Civil Twilight 6:34 AM CST 6:31 PM CST
Nautical Twilight 5:59 AM CST 7:06 PM CST
Astronomical Twilight 5:23 AM CST 7:42 PM CST
Moon 5:01 AM CST (2/26) 3:07 PM CST (2/26)
Length of Visible Light 11h 56m
Length of Day
10h 54m
Waning Crescent, 10% of the Moon is Illuminated
Feb 26
Waning Crescent
Mar 1
New
Mar 8
First Quarter
Mar 16
Full
Mar 23
Last Quarter

Hourly Weather History & Observations

Time (CST) Temp. Windchill Dew Point Humidity Pressure Visibility Wind Dir Wind Speed Gust Speed Precip Events Conditions
12:10 AM -13.4 °F -32.8 °F -18.8 °F 77% 30.15 in 10.0 mi West 10.4 mph - N/A   Clear
12:29 AM -13.0 °F -32.4 °F -18.4 °F 77% 30.14 in 10.0 mi WSW 10.4 mph - N/A   Clear
12:49 AM -12.6 °F -31.9 °F -18.4 °F 75% 30.13 in 10.0 mi WSW 10.4 mph - N/A   Clear
1:10 AM -12.1 °F -30.1 °F -17.9 °F 76% 30.11 in 10.0 mi WSW 9.2 mph - N/A   Scattered Clouds
1:29 AM -11.7 °F -30.8 °F -17.5 °F 76% 30.08 in 10.0 mi WSW 10.4 mph - N/A   Scattered Clouds
1:49 AM -10.8 °F -27.4 °F -17.7 °F 72% 30.07 in 10.0 mi WSW 8.1 mph - N/A   Mostly Cloudy
2:10 AM -10.3 °F -30.9 °F -17.3 °F 71% 30.05 in 10.0 mi WSW 12.7 mph - N/A   Overcast
2:29 AM -10.3 °F -30.9 °F -17.1 °F 72% 30.04 in 10.0 mi WSW 12.7 mph - N/A   Mostly Cloudy
2:49 AM -10.3 °F -29.0 °F -17.0 °F 72% 30.01 in 10.0 mi WSW 10.4 mph - N/A   Scattered Clouds
3:09 AM -10.3 °F -29.0 °F -16.8 °F 73% 29.99 in 10.0 mi WSW 10.4 mph - N/A   Mostly Cloudy
3:29 AM -10.5 °F -30.2 °F -17.5 °F 71% 29.96 in 10.0 mi WSW 11.5 mph 16.1 mph N/A   Scattered Clouds
3:50 AM -10.3 °F -30.0 °F -16.8 °F 73% 29.95 in 10.0 mi WSW 11.5 mph 16.1 mph N/A   Scattered Clouds
4:10 AM -9.4 °F -28.9 °F -16.4 °F 71% 29.92 in 10.0 mi WSW 11.5 mph - N/A   Scattered Clouds
4:29 AM -8.9 °F -27.2 °F -16.1 °F 71% 29.90 in 10.0 mi SW 10.4 mph 17.3 mph N/A   Scattered Clouds
4:49 AM -8.0 °F -27.1 °F -15.2 °F 71% 29.87 in 10.0 mi WSW 11.5 mph - N/A   Mostly Cloudy
5:09 AM -6.7 °F -27.2 °F -14.1 °F 70% 29.85 in 10.0 mi WSW 13.8 mph 19.6 mph N/A   Overcast
5:29 AM -5.3 °F -24.6 °F -13.0 °F 69% 29.83 in 10.0 mi WSW 12.7 mph 21.9 mph N/A   Overcast
5:50 AM -4.9 °F -22.3 °F -13.0 °F 68% 29.80 in 10.0 mi WSW 10.4 mph - N/A   Overcast
6:10 AM -4.4 °F -23.4 °F -12.3 °F 69% 29.78 in 10.0 mi WSW 12.7 mph - N/A   Mostly Cloudy
6:29 AM -3.6 °F -19.7 °F -11.4 °F 69% 29.76 in 10.0 mi WSW 9.2 mph - N/A   Mostly Cloudy
6:49 AM -3.1 °F -21.8 °F -11.0 °F 69% 29.73 in 10.0 mi WSW 12.7 mph 17.3 mph N/A   Mostly Cloudy
7:10 AM -2.2 °F -20.7 °F -10.3 °F 68% 29.72 in 10.0 mi WSW 12.7 mph - N/A   Scattered Clouds
7:29 AM -1.7 °F -19.2 °F -9.4 °F 70% 29.70 in 10.0 mi WSW 11.5 mph 18.4 mph N/A   Scattered Clouds
7:50 AM -0.8 °F -19.6 °F -8.7 °F 69% 29.68 in 10.0 mi WSW 13.8 mph 23.0 mph N/A   Overcast
8:09 AM -0.2 °F -20.3 °F -8.5 °F 68% 29.66 in 10.0 mi WSW 16.1 mph 25.3 mph N/A   Overcast
8:29 AM 0.9 °F -20.1 °F -7.6 °F 68% 29.64 in 10.0 mi WSW 18.4 mph 25.3 mph N/A   Overcast
8:50 AM 1.8 °F -18.9 °F -6.9 °F 67% 29.59 in 7.0 mi WSW 18.4 mph 26.5 mph N/A   Overcast
9:10 AM 3.0 °F -18.8 °F -6.2 °F 66% 29.57 in 7.0 mi WSW 21.9 mph 31.1 mph N/A   Overcast
9:29 AM 3.6 °F -18.1 °F -4.9 °F 68% 29.59 in 4.0 mi West 21.9 mph 32.2 mph N/A   Haze
9:50 AM 3.6 °F -16.6 °F -4.9 °F 68% 29.58 in 7.0 mi West 18.4 mph 29.9 mph N/A   Overcast
10:10 AM 5.4 °F -17.0 °F -4.0 °F 65% 29.56 in 7.0 mi West 25.3 mph 29.9 mph N/A   Overcast
10:29 AM 5.9 °F -15.5 °F -2.2 °F 69% 29.56 in 1.8 mi West 23.0 mph 36.8 mph N/A   Haze
10:49 AM 6.4 °F -15.6 °F -1.8 °F 69% 29.56 in 1.8 mi West 25.3 mph 36.8 mph N/A   Haze
11:10 AM 6.8 °F -14.7 °F -0.9 °F 71% 29.56 in 2.5 mi West 24.2 mph 29.9 mph N/A   Haze
11:29 AM 6.8 °F -15.9 °F -1.1 °F 70% 29.56 in 1.0 mi WNW 27.6 mph 38.0 mph N/A Snow Light Snow
11:50 AM 7.3 °F -12.6 °F 0.3 °F 73% 29.55 in 1.2 mi WNW 20.7 mph 33.4 mph N/A   Haze
12:10 PM 6.6 °F -16.1 °F -0.8 °F 72% 29.56 in 0.5 mi WNW 27.6 mph 34.5 mph N/A Snow Light Snow
12:29 PM 7.3 °F -14.4 °F -0.6 °F 70% 29.56 in 1.0 mi WNW 25.3 mph 34.5 mph N/A   Haze
12:49 PM 6.8 °F -15.5 °F -1.5 °F 69% 29.56 in 2.5 mi WNW 26.5 mph 31.1 mph N/A   Haze
1:10 PM 7.7 °F -12.6 °F -1.3 °F 67% 29.55 in 3.0 mi WNW 21.9 mph 31.1 mph N/A   Haze
1:29 PM 7.5 °F -15.3 °F -2.0 °F 65% 29.56 in 3.0 mi WNW 28.8 mph - N/A   Haze
1:49 PM 7.5 °F -13.7 °F -1.5 °F 67% 29.56 in 1.8 mi WNW 24.2 mph 35.7 mph N/A   Haze
2:10 PM 6.8 °F -15.5 °F -0.2 °F 73% 29.56 in 0.2 mi WNW 26.5 mph 41.4 mph N/A Snow Light Snow
2:29 PM 7.3 °F -16.5 °F -0.8 °F 69% 29.57 in 1.0 mi WNW 32.2 mph 36.8 mph N/A   Haze
2:50 PM 6.3 °F -18.0 °F -0.8 °F 73% 29.58 in 0.2 mi WNW 32.2 mph 40.3 mph N/A Snow Light Snow
3:10 PM 5.9 °F -18.8 °F -3.1 °F 67% 29.59 in 0.5 mi WNW 33.4 mph 43.7 mph N/A Snow Light Snow
3:29 PM 5.9 °F -17.8 °F -5.3 °F 60% 29.60 in 0.5 mi WNW 29.9 mph 44.9 mph N/A Snow Light Snow
3:49 PM 5.2 °F -18.1 °F -5.8 °F 61% 29.61 in 1.2 mi WNW 27.6 mph 39.1 mph N/A Snow Light Snow
4:10 PM 4.5 °F -17.4 °F -5.1 °F 65% 29.63 in 1.8 mi NW 23.0 mph 31.1 mph N/A Snow Light Snow
4:29 PM 2.7 °F -23.6 °F -7.1 °F 64% 29.65 in 0.8 mi NW 34.5 mph 40.3 mph N/A Snow Light Snow
4:49 PM 2.3 °F -21.5 °F -9.9 °F 57% 29.67 in 1.8 mi NNW 26.5 mph 34.5 mph N/A   Haze
5:10 PM -0.4 °F -25.2 °F -9.9 °F 64% 29.69 in 0.5 mi NW 26.5 mph 40.3 mph N/A Snow Light Snow
5:29 PM -2.4 °F -30.5 °F -12.5 °F 62% 29.71 in 0.2 mi NW 34.5 mph 49.5 mph N/A Snow Light Snow
5:49 PM -4.7 °F -33.7 °F -13.5 °F 66% 29.72 in 0.2 mi NW 34.5 mph 46.0 mph N/A Snow Snow
6:09 PM -5.8 °F -33.3 °F -15.3 °F 63% 29.74 in 0.2 mi NW 28.8 mph 43.7 mph N/A Snow Light Snow
6:29 PM -6.5 °F -34.3 °F -17.0 °F 61% 29.76 in 1.2 mi NW 28.8 mph 36.8 mph N/A Snow Light Snow
6:49 PM -7.8 °F -35.1 °F -18.9 °F 58% 29.78 in 4.0 mi NW 26.5 mph 32.2 mph N/A Snow Light Snow
7:10 PM -8.9 °F -35.6 °F -19.5 °F 60% 29.79 in 3.0 mi NW 24.2 mph 33.4 mph N/A   Haze
7:29 PM -9.8 °F -35.1 °F -20.7 °F 59% 29.81 in 3.0 mi NW 20.7 mph 33.4 mph N/A   Haze
7:49 PM -10.5 °F -38.7 °F -21.3 °F 59% 29.82 in 4.0 mi NW 26.5 mph 32.2 mph N/A   Haze
8:09 PM -11.2 °F -38.7 °F -21.6 °F 60% 29.83 in 4.0 mi NW 24.2 mph 32.2 mph N/A   Haze
8:29 PM -12.1 °F -37.6 °F -22.2 °F 61% 29.85 in 7.0 mi NW 19.6 mph 27.6 mph N/A   Clear
8:49 PM -13.0 °F -38.2 °F -22.7 °F 62% 29.87 in 7.0 mi NW 18.4 mph 25.3 mph N/A   Clear
9:09 PM -13.5 °F -37.5 °F -22.9 °F 63% 29.88 in 7.0 mi NW 16.1 mph 25.3 mph N/A   Clear
9:29 PM -14.1 °F -40.8 °F -23.8 °F 62% 29.89 in 10.0 mi NW 20.7 mph 25.3 mph N/A   Clear
9:50 PM -14.8 °F -39.1 °F -24.7 °F 61% 29.91 in 10.0 mi NNW 16.1 mph 21.9 mph N/A   Clear
10:10 PM -15.7 °F -40.2 °F -25.6 °F 61% 29.92 in 10.0 mi NW 16.1 mph 19.6 mph N/A   Clear
10:29 PM -16.1 °F -39.9 °F -26.0 °F 61% 29.93 in 10.0 mi NW 15.0 mph 20.7 mph N/A   Clear
10:49 PM -16.6 °F -40.6 °F -26.5 °F 61% 29.93 in 10.0 mi NW 15.0 mph - N/A   Clear
11:10 PM -17.1 °F -39.6 °F -26.7 °F 62% 29.94 in 10.0 mi NW 12.7 mph - N/A   Clear
11:29 PM -17.9 °F -40.5 °F -26.9 °F 64% 29.95 in 10.0 mi NW 12.7 mph - N/A   Clear
11:49 PM -18.2 °F -39.9 °F -27.4 °F 63% 29.96 in 10.0 mi NW 11.5 mph - N/A   Clear